Weather observations for the past three days for
Pennridge Airport
Metric (Imperial)
Date Time (edt) Wind (kph) Vis. (km) Weather Sky Cond. Temperature (ºC) Relative Humidity Wind Chill (°C) Heat Index (°C) Pressure Precipitation (cm)
Air Dwpt 6 hour altimeter (cm) sea level (mb) 1 hr 3 hr 6 hr
Max. Min.
06 13:35 SW 13 G 28 8.05 Fog/Mist OVC013 16 16 100% 75.64 0.0
06 13:15 Vrbl 11 G 28 16.09 Overcast OVC013 16 16 100% 75.67 0.0
06 12:55 SW 13 G 24 8.05 Light Rain BKN012 16 16 100% 75.64 0.0
06 12:35 S 15 6.44 Light Rain FEW008 FEW013 SCT024 16 16 100% 75.62 0.0
06 12:15 S 15 6.44 Light Rain SCT010 BKN016 BKN024 16 16 100% 75.67 0.0
06 11:55 Vrbl 9 G 24 4.83 Rain SCT017 BKN038 OVC050 16 16 100% 75.74 0.0
06 11:35 S 9 G 22 4.02 Rain SCT026 BKN046 OVC050 16 16 100% 75.74 0.0
06 11:15 Vrbl 11 G 24 8.05 Light Rain BKN026 16 16 100% 75.74 0.0
06 10:55 Vrbl 6 G 19 6.44 Light Rain FEW025 FEW032 16 16 100% 75.72 0.0
06 10:35 SW 13 4.83 Light Rain BKN026 17 17 100% 75.74 0.0
06 10:15 SW 17 G 30 9.66 Light Rain BKN028 BKN036 18 15 83% 75.74 0.0
06 09:55 S 15 14.48 Overcast OVC028 18 15 83% 75.72 0.0
06 09:35 Vrbl 9 G 22 16.09 Overcast OVC028 18 15 83% 75.74 0.0
06 09:15 Vrbl 11 G 22 16.09 Overcast OVC027 18 15 83% 75.74 0.0
06 08:55 SW 15 16.09 Overcast OVC027 18 14 78% 75.74 0.0
06 08:35 Vrbl 11 G 28 16.09 Overcast OVC026 18 14 78% 75.74 0.0
06 08:15 Vrbl 11 G 22 16.09 Overcast OVC026 18 14 78% 75.74 0.0
06 07:55 S 13 G 30 16.09 Mostly Cloudy BKN027 BKN100 18 14 78% 75.72 0.0
06 07:35 S 13 16.09 Partly Cloudy FEW027 SCT110 18 14 78% 75.72 0.0
06 07:15 S 13 G 22 16.09 Partly Cloudy SCT110 18 14 78% 75.74 0.0
06 06:55 Vrbl 9 G 26 16.09 Mostly Cloudy BKN110 18 14 78% 75.72 0.0
06 06:35 S 15 G 30 16.09 Mostly Cloudy BKN110 18 14 78% 75.69 0.0
06 06:15 S 13 G 24 16.09 Mostly Cloudy BKN120 18 14 78% 75.69 0.0
06 05:55 Vrbl 11 G 24 16.09 Mostly Cloudy BKN120 18 15 83% 75.69 0.0
06 05:35 S 9 G 22 16.09 Mostly Cloudy BKN120 18 14 78% 75.69 0.0
06 05:15 Vrbl 9 G 24 16.09 Mostly Cloudy BKN110 18 14 78% 75.69 0.0
06 04:55 Vrbl 11 G 24 16.09 Mostly Cloudy BKN120 18 14 78% 75.72 0.0
06 04:35 S 11 G 28 16.09 Partly Cloudy SCT120 18 14 78% 75.72 0.0
06 04:15 Vrbl 9 G 19 16.09 A Few Clouds FEW120 18 14 78% 75.72 0.0
06 03:55 Vrbl 9 G 20 16.09 Fair CLR 18 14 78% 75.72 0.0
06 03:35 Vrbl 9 G 20 16.09 A Few Clouds FEW055 19 13 68% 75.72 0.0
06 03:15 SW 13 16.09 Fair CLR 19 13 68% 75.72 0.0
06 02:55 SW 13 16.09 Fair CLR 19 13 68% 75.74 0.0
06 02:35 Vrbl 9 G 22 16.09 Fair CLR 19 13 68% 75.74 0.0
06 01:55 SW 9 G 24 16.09 Fair CLR 19 12 64% 75.77 0.0
06 01:35 Vrbl 9 G 20 16.09 Fair CLR 19 12 64% 75.77 0.0
06 01:15 Vrbl 11 16.09 Fair CLR 19 12 64% 75.79 0.0
06 00:55 Vrbl 11 16.09 Fair CLR 19 12 64% 75.79 0.0
06 00:35 Vrbl 9 G 19 16.09 Fair CLR 19 12 64% 75.82 0.0
06 00:15 SW 7 16.09 Fair CLR 19 12 64% 75.82 0.0
05 23:55 Vrbl 7 G 19 16.09 Fair CLR 19 11 60% 75.82 0.0
05 23:35 Vrbl 11 16.09 Fair CLR 20 11 56% 75.79 0.0
05 23:15 Vrbl 7 G 20 16.09 Fair CLR 20 11 56% 75.79 0.0
05 22:55 Vrbl 6 G 20 16.09 Fair CLR 21 10 50% 75.79 0.0
05 22:35 Vrbl 7 16.09 Fair CLR 21 10 50% 75.79 0.0
05 22:15 Vrbl 9 16.09 Fair CLR 22 9 44% 75.79 0.0
05 21:55 Vrbl 9 G 22 16.09 Fair CLR 22 9 44% 75.79 0.0
05 21:35 S 15 G 28 16.09 Fair CLR 23 9 41% 75.77 0.0
05 21:15 S 13 G 24 16.09 Fair CLR 23 9 41% 75.77 0.0
05 20:55 Vrbl 11 G 28 16.09 Fair CLR 23 9 41% 75.74 0.0
05 20:35 S 13 G 28 16.09 Fair CLR 23 9 41% 75.72 0.0
05 20:15 Vrbl 9 16.09 Fair CLR 23 9 41% 75.72 0.0
05 19:55 S 7 G 19 16.09 Fair CLR 24 8 36% 25 75.69 0.0
05 19:35 S 15 G 28 16.09 Fair CLR 24 8 36% 25 75.69 0.0
05 19:15 SW 13 G 24 16.09 Fair CLR 25 8 34% 26 75.69 0.0
05 18:55 SW 15 G 33 16.09 Fair CLR 25 7 32% 25 75.67 0.0
05 18:35 SW 13 G 35 16.09 Fair CLR 26 7 30% 26 75.67 0.0
05 18:15 SW 22 G 39 16.09 Fair CLR 26 7 30% 26 75.64 0.0
05 17:55 SW 22 G 41 16.09 Fair CLR 26 7 30% 26 75.67 0.0
05 17:35 SW 20 G 46 16.09 Fair CLR 26 7 30% 26 75.67 0.0
05 17:15 SW 19 G 39 16.09 Fair CLR 26 7 30% 26 75.64 0.0
05 16:55 S 24 G 43 16.09 Fair CLR 26 6 28% 26 75.64 0.0
05 16:35 SW 22 G 39 16.09 Fair CLR 27 6 26% 26 75.64 0.0
05 16:15 SW 22 G 33 16.09 Fair CLR 27 7 28% 26 75.64 0.0
05 15:55 SW 22 G 48 16.09 Fair CLR 27 6 26% 26 75.67 0.0
05 15:35 SW 19 G 43 16.09 Fair CLR 27 5 24% 26 75.67 0.0
05 15:15 SW 20 G 37 16.09 Fair CLR 27 6 26% 26 75.67 0.0
05 14:55 S 22 G 35 16.09 Fair CLR 27 6 26% 26 75.69 0.0
05 14:35 SW 22 G 48 16.09 Fair CLR 27 6 26% 26 75.72 0.0
05 14:15 S 17 G 41 16.09 Fair CLR 27 7 28% 26 75.72 0.0
05 13:55 S 22 G 37 16.09 Fair CLR 27 7 28% 26 75.74 0.0
05 13:35 SW 13 G 30 16.09 Fair CLR 27 9 32% 27 75.74 0.0
05 13:15 S 19 G 37 16.09 Fair CLR 26 9 34% 26 75.74 0.0
05 12:55 SW 15 G 31 16.09 Fair CLR 26 10 37% 26 75.77 0.0
05 12:35 SW 22 G 35 16.09 Fair CLR 26 9 34% 26 75.77 0.0
05 12:15 SW 19 G 33 16.09 Fair CLR 26 9 34% 26 75.79 0.0
05 11:55 W 17 G 28 16.09 Fair CLR 25 10 39% 26 75.79 0.0
05 11:35 SW 15 G 28 16.09 Fair CLR 25 10 39% 26 75.82 0.0
05 11:15 Vrbl 7 G 20 16.09 Fair CLR 24 10 41% 25 75.82 0.0
05 10:55 SW 13 G 24 16.09 Fair CLR 24 10 41% 25 75.84 0.0
05 10:35 Vrbl 11 G 24 16.09 Fair CLR 22 10 47% 75.84 0.0
05 10:15 Vrbl 7 G 22 16.09 Fair CLR 22 10 47% 75.87 0.0
05 09:55 SW 11 G 20 16.09 Fair CLR 21 10 50% 75.87 0.0
05 09:35 Vrbl 13 16.09 Fair CLR 20 10 53% 75.9 0.0
05 09:15 SW 11 G 20 16.09 Fair CLR 19 10 56% 75.9 0.0
05 08:55 SW 13 16.09 Fair CLR 18 10 60% 75.9 0.0
05 08:35 SW 13 16.09 Fair CLR 17 10 64% 75.9 0.0
05 08:15 Vrbl 9 G 24 16.09 Fair CLR 17 10 64% 75.87 0.0
05 07:55 Vrbl 9 16.09 Fair CLR 16 10 68% 75.87 0.0
05 07:35 Vrbl 6 16.09 Fair CLR 15 11 77% 75.87 0.0
05 07:15 Calm 16.09 Fair CLR 13 13 100% 75.84 0.0
05 06:55 Calm 16.09 Fair CLR 11 11 100% 75.87 0.0
05 06:35 Calm 16.09 Fair CLR 11 11 100% 75.84 0.0
05 06:15 Calm 16.09 Fair CLR 11 11 100% 75.84 0.0
05 05:55 Calm 16.09 Fair CLR 11 11 100% 75.82 0.0
05 05:35 Calm 16.09 Partly Cloudy FEW013 FEW055 SCT070 13 11 88% 75.84 0.0
05 05:15 Calm 16.09 Fair CLR 14 9 72% 75.82 0.0
05 04:55 W 6 16.09 Fair CLR 14 9 72% 75.79 0.0
05 04:35 Calm 16.09 Fair CLR 15 9 68% 75.79 0.0
05 04:15 Vrbl 7 16.09 Mostly Cloudy SCT095 BKN110 15 9 68% 75.79 0.0
05 03:55 Vrbl 7 16.09 Overcast FEW055 OVC090 15 8 63% 75.79 0.0
05 03:35 Vrbl 9 16.09 Overcast FEW050 OVC090 15 9 68% 75.79 0.0
05 03:15 Vrbl 7 16.09 Overcast FEW034 FEW060 OVC095 14 9 72% 75.79 0.0
05 02:55 Calm 16.09 Mostly Cloudy BKN095 BKN120 15 7 59% 75.79 0.0
05 02:35 SW 6 16.09 Partly Cloudy SCT095 SCT120 15 7 59% 75.79 0.0
05 02:15 SW 6 16.09 Partly Cloudy SCT120 15 7 59% 75.79 0.0
05 01:55 Calm 16.09 Fair CLR 15 6 55% 75.79 0.0
05 01:35 Vrbl 7 16.09 Fair CLR 15 6 55% 75.79 0.0
05 01:15 S 7 16.09 Fair CLR 15 6 55% 75.79 0.0
05 00:55 Vrbl 7 16.09 Fair CLR 15 6 55% 75.79 0.0
05 00:35 S 7 16.09 A Few Clouds FEW120 15 5 51% 75.79 0.0
05 00:15 Vrbl 7 16.09 Fair CLR 15 5 51% 75.79 0.0
04 23:55 S 6 16.09 Fair CLR 15 5 51% 75.79 0.0
04 23:35 Calm 16.09 Fair CLR 15 5 51% 75.79 0.0
04 23:15 Vrbl 6 16.09 Fair CLR 15 5 51% 75.79 0.0
04 22:55 Calm 16.09 Partly Cloudy SCT090 16 5 48% 75.79 0.0
04 22:35 Calm 16.09 A Few Clouds FEW090 15 5 51% 75.82 0.0
04 22:15 Calm 16.09 Fair CLR 15 5 51% 75.82 0.0
04 21:55 Calm 16.09 Fair CLR 16 5 48% 75.82 0.0
04 21:35 Calm 16.09 Fair CLR 15 5 51% 75.82 0.0
04 21:15 Calm 16.09 Fair CLR 17 4 42% 75.79 0.0
04 20:55 Calm 16.09 Fair CLR 17 4 42% 75.79 0.0
04 20:35 Calm 16.09 Fair CLR 18 4 40% 75.77 0.0
04 20:15 Calm 16.09 Fair CLR 19 4 37% 75.77 0.0
04 19:55 Vrbl 7 16.09 Fair CLR 19 4 37% 75.77 0.0
04 19:35 Vrbl 7 G 20 16.09 Fair CLR 20 4 35% 75.74 0.0
04 19:15 Vrbl 11 G 26 16.09 Fair CLR 20 4 35% 75.74 0.0
04 18:55 Vrbl 9 16.09 Fair CLR 21 4 33% 75.72 0.0
04 18:35 Vrbl 11 G 24 16.09 Fair CLR 21 4 33% 75.72 0.0
04 18:15 Vrbl 11 G 28 16.09 Fair CLR 21 4 33% 75.74 0.0
04 17:55 SW 13 G 28 16.09 Fair CLR 21 4 33% 75.74 0.0
04 17:35 Vrbl 11 G 26 16.09 A Few Clouds FEW080 21 4 33% 75.74 0.0
04 17:15 Vrbl 7 16.09 Fair CLR 21 4 33% 75.74 0.0
04 16:55 SW 15 G 33 16.09 A Few Clouds FEW075 21 4 33% 75.74 0.0
04 16:35 SW 17 16.09 Mostly Cloudy BKN075 21 4 33% 75.74 0.0
04 16:15 SW 13 G 26 16.09 A Few Clouds FEW075 21 3 31% 75.77 0.0
04 15:55 W 19 G 33 16.09 Fair CLR 21 4 33% 75.77 0.0
04 15:35 SW 17 G 31 16.09 Fair CLR 21 4 33% 75.79 0.0
04 15:15 S 13 G 26 16.09 Fair CLR 21 4 33% 75.79 0.0
04 14:55 SW 19 G 35 16.09 Fair CLR 21 3 31% 75.82 0.0
04 14:35 S 17 G 33 16.09 Fair CLR 21 4 33% 75.82 0.0
04 14:15 SW 13 G 24 16.09 Fair CLR 21 3 31% 75.84 0.0
04 13:55 SW 15 G 33 16.09 Fair CLR 20 3 33% 75.87 0.0
04 13:35 SW 17 G 28 16.09 Fair CLR 20 2 30% 75.9 0.0
04 13:15 SW 17 G 41 16.09 Fair CLR 20 2 30% 75.92 0.0
04 12:55 SW 13 G 31 16.09 Fair CLR 19 2 32% 75.92 0.0
04 12:35 W 19 G 30 16.09 Fair CLR 19 2 32% 75.95 0.0
04 12:15 SW 15 G 39 16.09 Fair CLR 19 1 30% 75.97 0.0
04 11:55 W 13 G 28 16.09 Fair CLR 19 1 30% 76 0.0
04 11:35 SW 19 G 30 16.09 Fair CLR 18 2 34% 76.02 0.0
04 11:15 W 17 G 28 16.09 Fair CLR 18 3 37% 76.02 0.0
04 10:55 SW 13 G 26 16.09 Fair CLR 17 4 42% 76.02 0.0
04 10:35 S 11 G 24 16.09 Fair CLR 16 4 45% 76.05 0.0
04 10:15 SW 19 16.09 Fair CLR 16 4 45% 76.05 0.0
04 09:55 SW 15 16.09 Fair CLR 15 5 51% 76.05 0.0
04 09:35 SW 15 16.09 Fair CLR 14 5 55% 76.05 0.0
04 09:15 Vrbl 7 G 19 16.09 Fair CLR 13 4 55% 76.07 0.0
04 08:55 Vrbl 7 G 19 16.09 Fair CLR 12 3 54% 76.1 0.0
04 08:35 Vrbl 9 G 19 16.09 Fair CLR 12 3 54% 76.1 0.0
04 08:15 SW 9 16.09 Fair CLR 11 2 54% 76.1 0.0
04 07:55 SW 7 16.09 Fair CLR 10 1 54% 9 76.1 0.0
04 07:35 Vrbl 7 16.09 Fair CLR 9 0 54% 8 76.1 0.0
04 07:15 Calm 16.09 Fair CLR 9 0 54% 76.1 0.0
04 06:55 Vrbl 9 16.09 Fair CLR 8 0 57% 7 76.12 0.0
04 06:35 SW 7 16.09 Fair CLR 7 -1 57% 6 76.1 0.0
04 06:15 Calm 16.09 Fair CLR 4 0 75% 76.1 0.0
04 05:55 Calm 16.09 Fair CLR 4 0 75% 76.1 0.0
04 05:35 Calm 16.09 Fair CLR 3 1 87% 76.1 0.0
04 05:15 Calm 16.09 Fair CLR 2 2 100% 76.1 0.0
04 04:55 Calm 16.09 Fair CLR 3 1 87% 76.1 0.0
04 04:35 Calm 16.09 Fair CLR 4 0 75% 76.1 0.0
04 04:15 Calm 16.09 Fair CLR 4 0 75% 76.1 0.0
04 03:55 Calm 16.09 Fair CLR 4 0 75% 76.1 0.0
04 03:35 S 6 16.09 Fair CLR 6 -1 61% 76.1 0.0
04 03:15 Calm 16.09 Fair CLR 5 -1 66% 76.1 0.0
04 02:55 Calm 16.09 Fair CLR 6 -1 61% 76.1 0.0
04 02:35 Calm 16.09 Fair CLR 7 -1 57% 76.1 0.0
04 02:15 W 7 16.09 Fair CLR 8 -2 50% 7 76.07 0.0
04 01:55 Calm 16.09 Fair CLR 6 -1 61% 76.1 0.0
04 01:35 Calm 16.09 Fair CLR 7 -1 57% 76.07 0.0
04 01:15 Calm 16.09 Fair CLR 7 -1 57% 76.1 0.0
04 00:55 Calm 16.09 Fair CLR 6 -1 61% 76.1 0.0
04 00:35 Calm 16.09 Fair CLR 6 -1 61% 76.07 0.0
04 00:15 Calm 16.09 Fair CLR 7 -1 57% 76.07 0.0
03 23:55 Calm 16.09 Fair CLR 7 -1 57% 76.05 0.0
03 23:35 Calm 16.09 Fair CLR 8 -2 50% 76.05 0.0
03 23:15 Calm 16.09 Fair CLR 8 -2 50% 76.02 0.0
03 22:55 Calm 16.09 Fair CLR 9 -2 46% 76.02 0.0
03 22:35 W 7 16.09 Fair CLR 9 -2 46% 8 76.02 0.0
03 22:15 W 6 16.09 Fair CLR 9 -2 46% 76.02 0.0
03 21:55 Calm 16.09 Fair CLR 10 -2 43% 76.02 0.0
03 21:35 SW 6 16.09 Fair CLR 10 -2 43% 76.02 0.0
03 21:15 SW 7 16.09 Fair CLR 10 -2 43% 9 76 0.0
03 20:55 SW 6 16.09 Fair CLR 10 -2 43% 76 0.0
03 20:35 W 6 16.09 Fair CLR 11 -3 38% 75.97 0.0
03 20:15 Calm 16.09 Fair CLR 11 -2 41% 75.95 0.0
03 19:55 Calm 16.09 Fair CLR 13 -3 33% 75.92 0.0
03 19:35 W 7 16.09 Fair CLR 14 -3 31% 75.92 0.0
03 19:15 W 13 G 22 16.09 Fair CLR 14 -4 29% 75.92 0.0
03 18:55 Calm 16.09 A Few Clouds FEW095 15 -4 27% 75.92 0.0
03 18:35 W 20 G 33 16.09 A Few Clouds FEW090 15 -5 25% 75.9 0.0
03 18:15 W 22 16.09 Fair CLR 14 -4 29% 75.9 0.0
03 17:55 W 20 G 30 16.09 Fair CLR 15 -5 25% 75.9 0.0
03 17:35 W 19 16.09 A Few Clouds FEW085 16 -5 23% 75.9 0.0
03 17:15 W 17 G 41 16.09 Fair CLR 15 -5 25% 75.87 0.0
03 16:55 W 22 G 43 16.09 A Few Clouds FEW090 15 -5 25% 75.9 0.0
03 16:35 W 20 G 41 16.09 A Few Clouds FEW080 15 -4 27% 75.9 0.0
03 16:15 NW 22 G 33 16.09 A Few Clouds FEW080 14 -5 27% 75.9 0.0
03 15:55 W 22 G 37 16.09 Partly Cloudy SCT075 14 -5 27% 75.92 0.0
03 15:35 W 22 G 39 16.09 Mostly Cloudy BKN075 14 -5 27% 75.95 0.0
03 14:55 W 24 G 41 16.09 A Few Clouds FEW075 13 -5 28% 75.97 0.0
03 14:35 W 26 G 41 16.09 A Few Clouds FEW070 14 -4 29% 76 0.0
03 14:15 W 26 G 43 16.09 A Few Clouds FEW070 13 -5 28% 75.97 0.0
Date Time (edt) Wind (kph) Vis. (km) Weather Sky Cond. Air Dwpt Max. Min. Relative Humidity Wind Chill (°C) Heat Index (°C) altimeter (cm) sea level (mb) 1 hr 3 hr 6 hr
6 hour
Temperature (ºC) Pressure Precipitation (cm)